Torna al catalogo

OPS 4682 DEB

AttivoPO
NORAD 38440·DEBRIS·🇺🇸 United States

Lanciato Apr 3, 1965 da Vandenberg Space Force Base

Loading…

Prossimi Passaggi (prossime 24 ore)

TLE

In scadenzaSource: Space-Track

Epoca: Sep 7, 2026, 19:13 UTC

1 38440U 65027EV  26250.80130928  .00000625  00000-0  20757-2 0  9991
2 38440  90.2625  19.2224 0040364 166.1011 194.1232 12.98961452627686

Traccia OPS 4682 DEB in tempo reale con AllMySat

Download on the App Store